Change the Weather History Date:

Monday, October 8, 2012

  Actual Average (KCXO) Record (KCXO)
Temperature  
Mean Temperature 58 °F -  
Max Temperature 66 °F 79 °F 91 °F (2011)
Min Temperature 50 °F 58 °F 43 °F (2000)
Degree Days  
Heating Degree Days 7    
Growing Degree Days 8 (Base 50)    
Moisture  
Dew Point 48 °F    
Average Humidity 74    
Maximum Humidity 93    
Minimum Humidity 54    
Precipitation  
Precipitation 0.00 in - - ()
Sea Level Pressure  
Sea Level Pressure 30.18 in    
Wind  
Wind Speed 3 mph (NNE)    
Max Wind Speed 7 mph    
Max Gust Speed -    
Visibility 10 miles    
Events Rain    
Averages and records for this station are not official NWS values.
T = Trace of Precipitation, MM = Missing Value Source: NWS Daily Summary

Daily Weather History Graph

Daily Weather History Graph

Search for Another Location

Airport or City:

Trip Planner

Search our weather history database for the weather conditions in past years. The results will help you decide how hot, cold, wet, or windy it might be!

Date:

Astronomy

Oct. 08, 2012 Rise Set
Actual Time 7:20 AM CDT 6:58 PM CDT
Civil Twilight 6:56 AM CDT 7:22 PM CDT
Nautical Twilight 6:28 AM CDT 7:50 PM CDT
Astronomical Twilight 6:00 AM CDT 8:18 PM CDT
Moon 12:27 AM CDT (10/8) 2:23 PM CDT (10/8)
Length of Visible Light 12h 26m
Length of Day
11h 37m
Last Quarter, 46% of the Moon is Illuminated
Oct 8
Last Quarter
Oct 15
New
Oct 21
First Quarter
Oct 29
Full
Nov 6
Last Quarter

Hourly Weather History & Observations

Time (CDT) Temp. Dew Point Humidity Pressure Visibility Wind Dir Wind Speed Gust Speed Precip Events Conditions
12:09 AM 53.6 °F 44.6 °F 72% 30.21 in 10.0 mi NNW 6.9 mph - N/A   Overcast
12:53 AM 53.1 °F 44.1 °F 71% 30.19 in 10.0 mi Calm Calm - N/A   Overcast
1:53 AM 53.1 °F 44.1 °F 71% 30.20 in 10.0 mi North 3.5 mph - N/A   Overcast
2:53 AM 53.1 °F 44.1 °F 71% 30.19 in 10.0 mi Calm Calm - N/A   Overcast
3:53 AM 51.1 °F 45.0 °F 80% 30.19 in 10.0 mi North 5.8 mph - 0.00 in   Overcast
4:53 AM 50.0 °F 46.0 °F 86% 30.20 in 7.0 mi Variable 4.6 mph - 0.00 in Rain Light Rain
5:19 AM 50.0 °F 46.4 °F 87% 30.20 in 10.0 mi North 3.5 mph - 0.00 in   Overcast
5:53 AM 50.0 °F 46.9 °F 89% 30.20 in 10.0 mi Variable 4.6 mph - 0.00 in   Overcast
6:53 AM 50.0 °F 46.9 °F 89% 30.22 in 10.0 mi Calm Calm - N/A   Overcast
7:53 AM 50.0 °F 48.0 °F 93% 30.23 in 10.0 mi Calm Calm - N/A   Overcast
8:20 AM 51.8 °F 48.2 °F 88% 30.24 in 10.0 mi Variable 3.5 mph - N/A   Overcast
8:44 AM 51.8 °F 48.2 °F 88% 30.24 in 10.0 mi Calm Calm - N/A   Overcast
8:53 AM 52.0 °F 48.0 °F 86% 30.24 in 10.0 mi Variable 3.5 mph - N/A   Overcast
9:53 AM 53.1 °F 48.0 °F 83% 30.25 in 10.0 mi Calm Calm - N/A   Overcast
10:31 AM 53.6 °F 46.4 °F 77% 30.25 in 10.0 mi Variable 4.6 mph - N/A   Overcast
10:53 AM 55.9 °F 46.9 °F 72% 30.24 in 10.0 mi Calm Calm - N/A   Overcast
11:00 AM 55.4 °F 46.4 °F 72% 30.24 in 10.0 mi Variable 3.5 mph - N/A   Overcast
11:53 AM 59.0 °F 48.0 °F 67% 30.23 in 10.0 mi Variable 3.5 mph - N/A   Overcast
12:37 PM 60.8 °F 46.4 °F 59% 30.21 in 10.0 mi Variable 3.5 mph - N/A   Scattered Clouds
12:53 PM 60.1 °F 46.9 °F 62% 30.21 in 10.0 mi Variable 6.9 mph - N/A   Mostly Cloudy
1:28 PM 62.6 °F 48.2 °F 59% 30.20 in 10.0 mi Variable 3.5 mph - N/A   Scattered Clouds
1:53 PM 63.0 °F 48.9 °F 60% 30.18 in 10.0 mi Variable 4.6 mph - N/A   Scattered Clouds
2:53 PM 64.0 °F 48.9 °F 58% 30.14 in 10.0 mi Variable 4.6 mph - N/A   Partly Cloudy
3:53 PM 66.0 °F 48.9 °F 54% 30.12 in 10.0 mi East 4.6 mph - N/A   Clear
4:53 PM 66.0 °F 48.9 °F 54% 30.11 in 10.0 mi Calm Calm - N/A   Clear
5:53 PM 66.0 °F 48.9 °F 54% 30.10 in 10.0 mi Calm Calm - N/A   Clear
6:53 PM 62.1 °F 50.0 °F 65% 30.10 in 10.0 mi Calm Calm - N/A   Clear
7:53 PM 59.0 °F 50.0 °F 72% 30.12 in 10.0 mi Calm Calm - N/A   Clear
8:53 PM 55.9 °F 50.0 °F 80% 30.12 in 10.0 mi Calm Calm - N/A   Clear
9:53 PM 54.0 °F 50.0 °F 86% 30.12 in 10.0 mi Calm Calm - N/A   Clear
10:53 PM 53.1 °F 50.0 °F 89% 30.12 in 10.0 mi Calm Calm - N/A   Clear
11:53 PM 53.1 °F 50.0 °F 89% 30.11 in 10.0 mi Calm Calm - N/A   Clear